TimeEDT,TemperatureF,Dew PointF,Humidity,Sea Level PressureIn,VisibilityMPH,Wind Direction,Wind SpeedMPH,Gust SpeedMPH,PrecipitationIn,Events,Conditions,WindDirDegrees,DateUTC
12:56 AM,37.9,36.0,93,30.27,10.0,Calm,Calm,-,N/A,,Clear,0,2013-04-30 04:56:00
1:56 AM,37.9,36.0,93,30.25,10.0,Calm,Calm,-,N/A,,Clear,0,2013-04-30 05:56:00
2:56 AM,37.0,35.1,93,30.26,10.0,Calm,Calm,-,N/A,,Clear,0,2013-04-30 06:56:00
3:56 AM,37.0,36.0,96,30.27,10.0,Calm,Calm,-,N/A,,Clear,0,2013-04-30 07:56:00
4:56 AM,37.9,36.0,93,30.27,10.0,Calm,Calm,-,N/A,,Clear,0,2013-04-30 08:56:00
5:56 AM,37.0,35.1,93,30.29,10.0,Calm,Calm,-,N/A,,Clear,0,2013-04-30 09:56:00
6:56 AM,39.9,37.9,93,30.31,10.0,Calm,Calm,-,N/A,,Clear,0,2013-04-30 10:56:00
7:56 AM,51.1,39.0,63,30.32,10.0,Calm,Calm,-,N/A,,Clear,0,2013-04-30 11:56:00
8:56 AM,55.9,32.0,40,30.32,10.0,ESE,4.6,-,N/A,,Clear,120,2013-04-30 12:56:00
9:56 AM,57.9,30.9,36,30.33,10.0,Variable,5.8,-,N/A,,Clear,0,2013-04-30 13:56:00
10:56 AM,61.0,30.0,31,30.33,10.0,South,8.1,-,N/A,,Clear,170,2013-04-30 14:56:00
11:56 AM,62.1,28.9,29,30.32,10.0,SE,8.1,-,N/A,,Unknown,130,2013-04-30 15:56:00
12:56 PM,61.0,30.9,32,30.32,10.0,SSE,9.2,15.0,N/A,,Clear,150,2013-04-30 16:56:00
1:56 PM,59.0,28.9,32,30.32,10.0,East,8.1,-,N/A,,Clear,100,2013-04-30 17:56:00
2:56 PM,61.0,28.0,29,30.32,10.0,SE,8.1,-,N/A,,Clear,140,2013-04-30 18:56:00
3:56 PM,61.0,24.1,24,30.31,10.0,Variable,6.9,-,N/A,,Clear,0,2013-04-30 19:56:00
4:56 PM,59.0,28.9,32,30.31,10.0,SSE,8.1,-,N/A,,Clear,150,2013-04-30 20:56:00
5:56 PM,57.9,33.1,39,30.32,10.0,Variable,3.5,-,N/A,,Clear,0,2013-04-30 21:56:00
6:56 PM,57.0,27.0,32,30.32,10.0,ESE,4.6,-,N/A,,Clear,120,2013-04-30 22:56:00
7:56 PM,52.0,36.0,54,30.34,10.0,Calm,Calm,-,N/A,,Clear,0,2013-04-30 23:56:00
8:56 PM,46.0,35.1,66,30.35,10.0,Calm,Calm,-,N/A,,Clear,0,2013-05-01 00:56:00
9:56 PM,43.0,35.1,74,30.36,10.0,Calm,Calm,-,N/A,,Clear,0,2013-05-01 01:56:00
10:56 PM,41.0,32.0,70,30.36,10.0,Calm,Calm,-,N/A,,Clear,0,2013-05-01 02:56:00
11:56 PM,39.0,33.1,79,30.36,10.0,Calm,Calm,-,N/A,,Clear,0,2013-05-01 03:56:00